TimePST,TemperatureF,Dew PointF,Humidity,Sea Level PressureIn,VisibilityMPH,Wind Direction,Wind SpeedMPH,Gust SpeedMPH,PrecipitationIn,Events,Conditions,WindDirDegrees,DateUTC
1:18 AM,55.4,55.4,100,29.97,9.0,South,20.7,-,N/A,,Overcast,170,2012-11-18 09:18:00
1:55 AM,55.4,55.4,100,29.98,10.0,SSE,16.1,-,N/A,,Overcast,160,2012-11-18 09:55:00
2:13 AM,53.6,53.6,100,29.99,10.0,South,13.8,-,N/A,,Overcast,180,2012-11-18 10:13:00
2:15 AM,53.6,53.6,100,29.99,10.0,South,15.0,-,N/A,,Overcast,180,2012-11-18 10:15:00
2:26 AM,53.6,53.6,100,29.99,10.0,South,13.8,-,N/A,,Overcast,170,2012-11-18 10:26:00
2:27 AM,53.6,53.6,100,29.99,10.0,South,13.8,-,N/A,,Overcast,170,2012-11-18 10:27:00
2:46 AM,53.6,53.6,100,29.98,10.0,SSE,16.1,-,N/A,,Overcast,160,2012-11-18 10:46:00
2:55 AM,53.6,53.6,100,29.98,10.0,SSE,16.1,-,N/A,,Overcast,160,2012-11-18 10:55:00
3:07 AM,53.6,53.6,100,29.98,10.0,SSE,17.3,-,N/A,,Overcast,160,2012-11-18 11:07:00
3:32 AM,53.6,53.6,100,29.99,10.0,SSE,16.1,-,N/A,,Overcast,160,2012-11-18 11:32:00
5:58 AM,50.0,50.0,100,30.04,10.0,South,8.1,-,N/A,,Mostly Cloudy,170,2012-11-18 13:58:00
6:11 AM,50.0,50.0,100,30.04,10.0,South,8.1,-,N/A,,Partly Cloudy,170,2012-11-18 14:11:00
6:58 AM,48.6,48.6,100,30.06,10.0,SSE,6.9,-,N/A,,Clear,160,2012-11-18 14:58:00
7:58 AM,49.8,49.8,100,30.08,10.0,SSE,9.2,-,N/A,,Partly Cloudy,150,2012-11-18 15:58:00
8:58 AM,52.2,52.0,99,30.09,10.0,SSE,12.7,-,N/A,,Mostly Cloudy,160,2012-11-18 16:58:00
9:58 AM,55.2,48.0,77,30.11,10.0,SSE,15.0,-,N/A,,Clear,150,2012-11-18 17:58:00
10:58 AM,56.1,43.5,63,30.12,10.0,SSE,9.2,-,N/A,,Mostly Cloudy,150,2012-11-18 18:58:00
11:55 AM,59.0,42.8,55,30.11,10.0,South,10.4,-,N/A,,Overcast,180,2012-11-18 19:55:00
12:58 PM,59.0,39.6,49,30.11,10.0,South,11.5,-,N/A,,Mostly Cloudy,180,2012-11-18 20:58:00
1:58 PM,58.6,40.1,50,30.11,10.0,South,8.1,-,N/A,,Overcast,180,2012-11-18 21:58:00
2:58 PM,58.3,44.2,60,30.11,10.0,South,11.5,-,N/A,,Overcast,170,2012-11-18 22:58:00
3:58 PM,57.0,45.1,64,30.13,10.0,SSE,5.8,-,N/A,,Overcast,160,2012-11-18 23:58:00
4:58 PM,55.6,45.7,69,30.14,10.0,ESE,5.8,-,N/A,,Overcast,120,2012-11-19 00:58:00
5:58 PM,54.9,46.2,73,30.14,10.0,ESE,6.9,-,N/A,,Partly Cloudy,120,2012-11-19 01:58:00
6:55 PM,55.4,46.4,72,30.14,10.0,ESE,8.1,-,N/A,,Mostly Cloudy,120,2012-11-19 02:55:00
7:58 PM,54.3,47.1,77,30.15,10.0,East,6.9,-,N/A,,Overcast,100,2012-11-19 03:58:00
8:58 PM,54.5,47.1,76,30.17,10.0,East,6.9,-,N/A,,Scattered Clouds,100,2012-11-19 04:58:00
9:58 PM,54.7,46.6,74,30.17,10.0,East,6.9,-,N/A,,Mostly Cloudy,100,2012-11-19 05:58:00
10:58 PM,54.7,46.0,73,30.18,10.0,SE,5.8,-,N/A,,Overcast,130,2012-11-19 06:58:00
11:58 PM,54.3,45.3,72,30.18,10.0,ESE,9.2,-,N/A,,Overcast,110,2012-11-19 07:58:00